Scott AFB, IL

7:45 PM CST on February 24, 2017 (GMT -0600)
Scott Air Force Base-Midamerica

Weather History for KBLV - November, 2013

Change the Weather History Date:

Wednesday, November 20, 2013

  Actual Average Record
Temperature  
Mean Temperature 40 °F -  
Max Temperature 50 °F 55 °F 73 °F (2003)
Min Temperature 29 °F 35 °F 17 °F (2014)
Degree Days  
Heating Degree Days 26    
Moisture  
Dew Point 36 °F    
Average Humidity 76    
Maximum Humidity 92    
Minimum Humidity 57    
Precipitation  
Precipitation 0.01 in - - ()
Sea Level Pressure  
Sea Level Pressure 30.12 in    
Wind  
Wind Speed 6 mph (SE)    
Max Wind Speed 12 mph    
Max Gust Speed -    
Visibility 10 miles    
Events Rain    
Averages and records for this station are not official NWS values.
T = Trace of Precipitation, MM = Missing Value Source: NWS Daily Summary

Daily Weather History Graph

Daily Weather History Graph

Search for Another Location

Airport or City:

Trip Planner

Search our weather history database for the weather conditions in past years. The results will help you decide how hot, cold, wet, or windy it might be!

Date:

Astronomy

Nov. 20, 2013 Rise Set
Actual Time 6:46 AM CST 4:42 PM CST
Civil Twilight 6:18 AM CST 5:11 PM CST
Nautical Twilight 5:45 AM CST 5:43 PM CST
Astronomical Twilight 5:14 AM CST 6:15 PM CST
Moon 7:25 PM CST (11/20) 9:11 AM CST (11/20)
Length of Visible Light 10h 53m
Length of Day
9h 55m
Waning Gibbous, 91% of the Moon is Illuminated
Nov 20
Waning Gibbous
Nov 25
Last Quarter
Dec 2
New
Dec 9
First Quarter
Dec 17
Full

Hourly Weather History & Observations

Time (CST) Temp. Windchill Dew Point Humidity Pressure Visibility Wind Dir Wind Speed Gust Speed Precip Events Conditions
12:58 AM 29.7 °F - 27.1 °F 90% 30.24 in 10.0 mi Calm Calm - N/A   Clear
1:58 AM 30.7 °F 27.3 °F 27.7 °F 88% 30.25 in 10.0 mi East 3.5 mph - N/A   Clear
2:58 AM 30.9 °F - 27.5 °F 87% 30.24 in 10.0 mi East 2.3 mph - N/A   Clear
3:58 AM 30.4 °F 25.6 °F 27.5 °F 89% 30.23 in 10.0 mi East 4.6 mph - N/A   Partly Cloudy
4:58 AM 30.0 °F - 27.9 °F 92% 30.23 in 10.0 mi ENE 1.2 mph - N/A   Mostly Cloudy
5:58 AM 32.2 °F 25.8 °F 29.7 °F 90% 30.21 in 10.0 mi ESE 6.9 mph - N/A   Overcast
6:58 AM 31.8 °F 26.2 °F 29.3 °F 90% 30.21 in 10.0 mi ESE 5.8 mph - N/A   Clear
7:58 AM 33.1 °F 26.1 °F 30.2 °F 89% 30.22 in 10.0 mi ESE 8.1 mph - N/A   Clear
8:58 AM 37.0 °F 31.6 °F 32.0 °F 82% 30.21 in 10.0 mi SE 6.9 mph - N/A   Clear
9:58 AM 39.7 °F 34.3 °F 32.4 °F 75% 30.20 in 10.0 mi SE 8.1 mph - N/A   Clear
10:58 AM 43.2 °F 37.0 °F 32.9 °F 67% 30.18 in 10.0 mi SSE 11.5 mph - N/A   Partly Cloudy
11:58 AM 44.8 °F 42.4 °F 33.3 °F 64% 30.17 in 10.0 mi SSE 4.6 mph - N/A   Partly Cloudy
12:49 PM 46.4 °F 45.2 °F 32.0 °F 57% 30.13 in 10.0 mi SSW 3.5 mph - N/A   Light Drizzle
12:58 PM 45.5 °F 43.2 °F 33.4 °F 63% 30.15 in 10.0 mi South 4.6 mph - N/A Rain Light Rain
1:39 PM 44.6 °F 43.1 °F 35.6 °F 71% 30.11 in 10.0 mi SE 3.5 mph - N/A   Scattered Clouds
1:53 PM 44.6 °F 41.4 °F 35.6 °F 71% 30.10 in 10.0 mi ESE 5.8 mph - N/A   Light Drizzle
1:58 PM 44.8 °F 42.4 °F 35.4 °F 70% 30.13 in 10.0 mi ESE 4.6 mph - 0.00 in   Light Drizzle
2:03 PM 44.6 °F 43.1 °F 35.6 °F 71% 30.11 in 10.0 mi ESE 3.5 mph - N/A   Mostly Cloudy
2:11 PM 44.6 °F - 35.6 °F 71% 30.11 in 10.0 mi ESE 2.3 mph - N/A   Light Drizzle
2:25 PM 44.6 °F 42.2 °F 35.6 °F 71% 30.10 in 10.0 mi East 4.6 mph - N/A   Mostly Cloudy
2:32 PM 44.6 °F 40.7 °F 35.6 °F 71% 30.08 in 10.0 mi East 6.9 mph - N/A Rain Light Rain
2:46 PM 44.6 °F 40.7 °F 37.4 °F 76% 30.07 in 10.0 mi East 6.9 mph - N/A   Mostly Cloudy
2:58 PM 44.1 °F 40.8 °F 37.0 °F 76% 30.09 in 10.0 mi East 5.8 mph - 0.00 in   Mostly Cloudy
3:58 PM 45.9 °F 42.3 °F 36.5 °F 70% 30.09 in 10.0 mi East 6.9 mph - N/A   Overcast
4:58 PM 46.0 °F 41.9 °F 35.8 °F 67% 30.08 in 10.0 mi East 8.1 mph - N/A   Overcast
5:08 PM 46.4 °F 42.9 °F 35.6 °F 66% 30.07 in 10.0 mi East 6.9 mph - N/A Rain Light Rain
5:17 PM 46.4 °F 42.9 °F 35.6 °F 66% 30.07 in 10.0 mi ESE 6.9 mph - N/A   Overcast
5:43 PM 46.4 °F 42.4 °F 37.4 °F 71% 30.07 in 10.0 mi ESE 8.1 mph - N/A Rain Light Rain
5:54 PM 46.4 °F 42.4 °F 37.4 °F 71% 30.09 in 10.0 mi ESE 8.1 mph - N/A   Overcast
5:58 PM 45.5 °F 41.3 °F 37.2 °F 73% 30.11 in 10.0 mi ESE 8.1 mph - 0.00 in   Overcast
6:06 PM 46.4 °F 42.4 °F 37.4 °F 71% 30.09 in 10.0 mi ESE 8.1 mph - N/A   Light Drizzle
6:15 PM 44.6 °F 40.7 °F 37.4 °F 76% 30.09 in 10.0 mi East 6.9 mph - N/A   Overcast
6:26 PM 44.6 °F 41.4 °F 37.4 °F 76% 30.10 in 10.0 mi ESE 5.8 mph - N/A Rain Light Rain
6:56 PM 44.6 °F 39.7 °F 39.2 °F 81% 30.09 in 10.0 mi SE 9.2 mph - N/A   Overcast
6:58 PM 45.3 °F 40.6 °F 38.3 °F 76% 30.11 in 10.0 mi ESE 9.2 mph - 0.00 in   Overcast
6:59 PM 44.6 °F 39.7 °F 39.2 °F 81% 30.09 in 10.0 mi SE 9.2 mph - N/A Rain Light Rain
7:24 PM 44.6 °F 39.2 °F 39.2 °F 81% 30.08 in 10.0 mi ESE 10.4 mph - N/A   Mostly Cloudy
7:38 PM 44.6 °F 39.2 °F 39.2 °F 81% 30.07 in 10.0 mi ESE 10.4 mph - N/A Rain Light Rain
7:56 PM 46.4 °F 41.5 °F 39.2 °F 76% 30.07 in 10.0 mi ESE 10.4 mph - N/A   Mostly Cloudy
7:58 PM 45.7 °F 40.6 °F 38.8 °F 77% 30.09 in 10.0 mi ESE 10.4 mph - 0.01 in   Mostly Cloudy
8:01 PM 46.4 °F 42.4 °F 39.2 °F 76% 30.08 in 10.0 mi SE 8.1 mph - N/A Rain Light Rain
8:07 PM 46.4 °F 41.9 °F 39.2 °F 76% 30.08 in 10.0 mi ESE 9.2 mph - N/A   Overcast
8:50 PM 46.4 °F 42.4 °F 39.2 °F 76% 30.07 in 10.0 mi SE 8.1 mph - N/A Rain Light Rain
8:58 PM 47.3 °F - 38.7 °F 72% 30.10 in 10.0 mi South 6.9 mph - 0.00 in Rain Light Rain
9:05 PM 46.4 °F 42.4 °F 39.2 °F 76% 30.09 in 10.0 mi South 8.1 mph - N/A   Mostly Cloudy
9:58 PM 48.0 °F - 39.7 °F 73% 30.11 in 10.0 mi SSE 10.4 mph - 0.00 in   Overcast
10:29 PM 48.2 °F - 41.0 °F 76% 30.09 in 10.0 mi SSE 8.1 mph - N/A   Light Drizzle
10:43 PM 48.2 °F - 41.0 °F 76% 30.09 in 10.0 mi SSE 9.2 mph - N/A   Overcast
10:58 PM 48.0 °F - 41.4 °F 78% 30.11 in 10.0 mi SE 5.8 mph - 0.00 in   Mostly Cloudy
11:06 PM 48.2 °F - 41.0 °F 76% 30.08 in 10.0 mi SE 9.2 mph - N/A   Light Drizzle
11:26 PM 48.2 °F - 41.0 °F 76% 30.08 in 10.0 mi SSE 9.2 mph - N/A   Mostly Cloudy
11:40 PM 50.0 °F - 41.0 °F 71% 30.08 in 10.0 mi SSE 5.8 mph - N/A Rain Light Rain
11:58 PM 48.9 °F - 41.2 °F 75% 30.10 in 10.0 mi SSE 10.4 mph - 0.00 in   Light Drizzle